Back to catalog

STARLINK-37639

AliveCommunicationsSSO
NORAD 69146·PAYLOAD·🇺🇸 United States

Launched May 20, 2026 from Vandenberg Space Force Base

Loading…

Next Passes (next 24 hours)

TLE

FreshSource: CelesTrak SupGP

Epoch: Sep 14, 2026, 23:25 UTC

1 69146C 26110Y   26257.97618056  .00069362  00000+0  21531-2 0  2576
2 69146  97.2852  93.1838 0001660  92.8079 284.5646 15.33403801    15

Track STARLINK-37639 in real time with AllMySat

Download on the App Store